Weather History for Punta Gorda, FL

Change the Weather History Date:

Monday, January 14, 2013

  Actual Average Record
Temperature  
Mean Temperature 68 °F -  
Max Temperature 82 °F 71 °F 82 °F (2013)
Min Temperature 55 °F 48 °F 37 °F (2011)
Cooling Degree Days 4    
Growing Degree Days 18 (Base 50)    
Moisture  
Dew Point 59 °F    
Average Humidity 82    
Maximum Humidity 100    
Minimum Humidity 44    
Precipitation  
Precipitation 0.01 in - - ()
Sea Level Pressure  
Sea Level Pressure 30.17 in    
Wind  
Wind Speed 4 mph (ESE)    
Max Wind Speed 14 mph    
Max Gust Speed 17 mph    
Visibility 7 miles    
Events Fog    
Averages and records for this station are not official NWS values.
T = Trace of Precipitation, MM = Missing Value Source: NWS Daily Summary

Daily Weather History Graph

Daily Weather History Graph

Search for Another Location

Airport:

Trip Planner

Search our weather history database for the weather conditions in past years. The results will help you decide how hot, cold, wet, or windy it might be!

Date:

Astronomy

Jan. 14, 2013 Rise Set
Actual Time 7:18 AM EST 5:56 PM EST
Civil Twilight 6:53 AM EST 6:21 PM EST
Nautical Twilight 6:24 AM EST 6:49 PM EST
Astronomical Twilight 5:56 AM EST 7:17 PM EST
Moon 9:12 AM EST (1/14) 9:15 PM EST (1/14)
Length of Visible Light 11h 27m
Length of Day
10h 37m
Waxing Crescent, 11% of the Moon is Illuminated
Jan 14
Waxing Crescent
Jan 18
First Quarter
Jan 26
Full
Feb 3
Last Quarter
Feb 10
New

Hourly Weather History & Observations

Time (EST) Temp. Heat Index Dew Point Humidity Pressure Visibility Wind Dir Wind Speed Gust Speed Precip Events Conditions
12:53 AM 62.1 °F - 60.1 °F 93% 30.17 in 10.0 mi Calm Calm - N/A   Clear
1:53 AM 62.1 °F - 60.1 °F 93% 30.17 in 10.0 mi ESE 5.8 mph - N/A   Clear
2:53 AM 61.0 °F - 59.0 °F 93% 30.16 in 10.0 mi East 5.8 mph - N/A   Clear
3:30 AM 59.0 °F - 57.2 °F 94% 30.16 in 1.8 mi Calm Calm - N/A   Clear
3:39 AM 57.2 °F - 57.2 °F 100% 30.16 in 0.5 mi ENE 3.5 mph - N/A Fog Fog
3:48 AM 57.2 °F - 55.4 °F 94% 30.16 in 1.2 mi ENE 5.8 mph - N/A   Scattered Clouds
3:53 AM 55.9 °F - 55.0 °F 97% 30.16 in 2.5 mi ENE 4.6 mph - N/A   Scattered Clouds
4:01 AM 57.2 °F - 55.4 °F 94% 30.15 in 1.5 mi East 3.5 mph - N/A   Partly Cloudy
4:06 AM 57.2 °F - 57.2 °F 100% 30.15 in 3.0 mi East 4.6 mph - N/A   Partly Cloudy
4:53 AM 60.1 °F - 59.0 °F 96% 30.15 in 6.0 mi East 6.9 mph - 0.01 in   Clear
5:21 AM 57.2 °F - 55.4 °F 94% 30.15 in 1.8 mi ENE 4.6 mph - N/A   Partly Cloudy
5:35 AM 57.2 °F - 55.4 °F 94% 30.15 in 3.0 mi East 5.8 mph - N/A   Clear
5:53 AM 57.0 °F - 55.9 °F 96% 30.15 in 4.0 mi East 4.6 mph - N/A   Clear
6:53 AM 60.1 °F - 59.0 °F 96% 30.16 in 8.0 mi East 4.6 mph - N/A   Clear
7:53 AM 60.1 °F - 59.0 °F 96% 30.18 in 8.0 mi NE 4.6 mph - N/A   Scattered Clouds
8:53 AM 66.0 °F - 63.0 °F 90% 30.20 in 10.0 mi ESE 3.5 mph - N/A   Partly Cloudy
9:53 AM 73.0 °F - 63.0 °F 71% 30.21 in 10.0 mi ESE 6.9 mph - N/A   Partly Cloudy
10:53 AM 78.1 °F - 60.1 °F 54% 30.20 in 10.0 mi SE 13.8 mph - N/A   Clear
11:53 AM 80.1 °F 80.7 °F 59.0 °F 48% 30.18 in 10.0 mi SSE 12.7 mph 17.3 mph N/A   Clear
12:53 PM 79.0 °F - 60.1 °F 52% 30.15 in 10.0 mi SSE 9.2 mph - N/A   Scattered Clouds
1:53 PM 81.0 °F 81.6 °F 60.1 °F 49% 30.14 in 10.0 mi South 8.1 mph - N/A   Scattered Clouds
2:53 PM 82.9 °F 82.8 °F 59.0 °F 44% 30.14 in 10.0 mi SE 5.8 mph - N/A   Overcast
3:53 PM 82.0 °F 82.1 °F 59.0 °F 45% 30.14 in 10.0 mi SW 8.1 mph - N/A   Scattered Clouds
5:53 PM 73.9 °F - 61.0 °F 64% 30.17 in 10.0 mi West 3.5 mph - N/A   Scattered Clouds
6:53 PM 73.0 °F - 61.0 °F 66% 30.18 in 10.0 mi Calm Calm - N/A   Mostly Cloudy
7:53 PM 66.0 °F - 61.0 °F 84% 30.18 in 10.0 mi SSE 3.5 mph - N/A   Clear
8:53 PM 64.0 °F - 61.0 °F 90% 30.18 in 10.0 mi SE 4.6 mph - N/A   Clear
9:53 PM 64.0 °F - 60.1 °F 87% 30.18 in 10.0 mi Calm Calm - N/A   Clear
10:53 PM 64.0 °F - 60.1 °F 87% 30.17 in 10.0 mi SE 4.6 mph - N/A   Clear
11:53 PM 63.0 °F - 59.0 °F 87% 30.17 in 10.0 mi ESE 4.6 mph - N/A   Clear